Enid, OK

5:44 PM CST on December 09, 2016 (GMT -0600)
Enid Woodring Municipal

Weather History for KWDG - March, 2014

Change the Weather History Date:

Thursday, March 13, 2014

  Actual Average Record
Temperature  
Mean Temperature 48 °F -  
Max Temperature 69 °F 55 °F 80 °F (2002)
Min Temperature 26 °F 36 °F 26 °F (1998)
Degree Days  
Heating Degree Days 18    
Moisture  
Dew Point 25 °F    
Average Humidity 57    
Maximum Humidity 80    
Minimum Humidity 16    
Precipitation  
Precipitation 0.00 in - - ()
Sea Level Pressure  
Sea Level Pressure 30.08 in    
Wind  
Wind Speed 5 mph (South)    
Max Wind Speed 24 mph    
Max Gust Speed 31 mph    
Visibility 10 miles    
Events      
Averages and records for this station are not official NWS values.
T = Trace of Precipitation, MM = Missing Value Source: NWS Daily Summary

Daily Weather History Graph

Daily Weather History Graph

Search for Another Location

Airport or City:

Trip Planner

Search our weather history database for the weather conditions in past years. The results will help you decide how hot, cold, wet, or windy it might be!

Date:

Astronomy

Mar. 13, 2014 Rise Set
Actual Time 7:44 AM CDT 7:36 PM CDT
Civil Twilight 7:19 AM CDT 8:02 PM CDT
Nautical Twilight 6:49 AM CDT 8:32 PM CDT
Astronomical Twilight 6:19 AM CDT 9:02 PM CDT
Moon 5:07 PM CDT (3/13) 5:48 AM CDT (3/13)
Length of Visible Light 12h 43m
Length of Day
11h 52m
Waxing Gibbous, 91% of the Moon is Illuminated
Mar 13
Waxing Gibbous
Mar 16
Full
Mar 23
Last Quarter
Mar 30
New
Apr 7
First Quarter

Hourly Weather History & Observations

Time (CDT) Temp. Windchill Dew Point Humidity Pressure Visibility Wind Dir Wind Speed Gust Speed Precip Events Conditions
12:15 AM 33.8 °F - 26.6 °F 75% 30.20 in 10.0 mi Calm Calm - N/A   Clear
12:35 AM 33.8 °F - 26.6 °F 75% 30.20 in 10.0 mi Calm Calm - N/A   Clear
12:55 AM 33.8 °F 30.8 °F 26.6 °F 75% 30.19 in 10.0 mi SSW 3.5 mph - N/A   Clear
1:15 AM 32.0 °F - 26.6 °F 80% 30.19 in 10.0 mi Calm Calm - N/A   Clear
1:35 AM 32.0 °F - 26.6 °F 80% 30.19 in 10.0 mi Calm Calm - N/A   Clear
1:55 AM 33.8 °F - 26.6 °F 75% 30.19 in 10.0 mi Calm Calm - N/A   Clear
2:15 AM 32.0 °F - 24.8 °F 75% 30.19 in 10.0 mi Calm Calm - N/A   Clear
2:35 AM 32.0 °F - 24.8 °F 75% 30.19 in 10.0 mi Calm Calm - N/A   Clear
2:55 AM 32.0 °F - 24.8 °F 75% 30.18 in 10.0 mi Calm Calm - N/A   Clear
3:15 AM 32.0 °F - 24.8 °F 75% 30.18 in 10.0 mi Calm Calm - N/A   Clear
3:35 AM 33.8 °F - 24.8 °F 70% 30.17 in 10.0 mi Calm Calm - N/A   Clear
3:55 AM 32.0 °F - 23.0 °F 69% 30.17 in 10.0 mi Calm Calm - N/A   Clear
4:15 AM 30.2 °F - 23.0 °F 75% 30.17 in 10.0 mi Calm Calm - N/A   Clear
4:35 AM 30.2 °F 26.7 °F 23.0 °F 75% 30.17 in 10.0 mi South 3.5 mph - N/A   Clear
4:55 AM 30.2 °F - 23.0 °F 75% 30.17 in 10.0 mi Calm Calm - N/A   Clear
5:15 AM 30.2 °F - 23.0 °F 75% 30.17 in 10.0 mi Calm Calm - N/A   Clear
5:35 AM 28.4 °F 24.6 °F 23.0 °F 80% 30.17 in 10.0 mi South 3.5 mph - N/A   Clear
5:55 AM 28.4 °F 23.3 °F 23.0 °F 80% 30.17 in 10.0 mi South 4.6 mph - N/A   Clear
6:20 AM 26.6 °F 17.5 °F 21.2 °F 80% 30.17 in 10.0 mi South 9.2 mph - N/A   Clear
6:50 AM 26.6 °F 17.5 °F 21.2 °F 80% 30.17 in 10.0 mi South 9.2 mph - N/A   Clear
7:50 AM 26.6 °F 16.2 °F 21.2 °F 80% 30.17 in 10.0 mi South 11.5 mph - N/A   Clear
8:50 AM 32.0 °F 23.0 °F 26.6 °F 80% 30.18 in 10.0 mi South 11.5 mph - N/A   Clear
9:50 AM 42.8 °F 36.6 °F 32.0 °F 66% 30.18 in 10.0 mi South 11.5 mph - N/A   Clear
10:50 AM 57.2 °F - 24.8 °F 29% 30.17 in 10.0 mi SW 17.3 mph 23.0 mph N/A   Clear
11:50 AM 64.4 °F - 24.8 °F 22% 30.15 in 10.0 mi SW 17.3 mph 23.0 mph N/A   Clear
12:50 PM 66.2 °F - 23.0 °F 19% 30.12 in 10.0 mi SW 17.3 mph 25.3 mph N/A   Clear
1:50 PM 69.8 °F - 23.0 °F 17% 30.09 in 10.0 mi N/A N/A - N/A   Clear
2:50 PM 69.8 °F - 23.0 °F 17% 30.04 in 10.0 mi South 16.1 mph 27.6 mph N/A   Clear
3:50 PM 69.8 °F - 23.0 °F 17% 30.00 in 10.0 mi South 21.9 mph 29.9 mph N/A   Scattered Clouds
4:50 PM 69.8 °F - 21.2 °F 16% 29.97 in 10.0 mi South 24.2 mph 29.9 mph N/A   Scattered Clouds
5:50 PM 68.0 °F - 23.0 °F 18% 29.94 in 10.0 mi South 23.0 mph 31.1 mph N/A   Scattered Clouds
6:50 PM 66.2 °F - 21.2 °F 18% 29.93 in 10.0 mi SSW 20.7 mph 26.5 mph N/A   Scattered Clouds
7:50 PM 57.2 °F - 23.0 °F 27% 29.92 in 10.0 mi South 11.5 mph - N/A   Partly Cloudy
8:50 PM 48.2 °F - 23.0 °F 37% 29.92 in 10.0 mi South 9.2 mph - N/A   Partly Cloudy
9:15 PM 46.4 °F 41.5 °F 24.8 °F 43% 29.92 in 10.0 mi South 10.4 mph - N/A   Clear
9:35 PM 44.6 °F 39.2 °F 24.8 °F 46% 29.91 in 10.0 mi South 10.4 mph - N/A   Clear
9:55 PM 44.6 °F 39.2 °F 26.6 °F 49% 29.90 in 10.0 mi South 10.4 mph - N/A   Clear
10:15 PM 44.6 °F 38.8 °F 26.6 °F 49% 29.90 in 10.0 mi South 11.5 mph - N/A   Clear
10:35 PM 44.6 °F 38.8 °F 26.6 °F 49% 29.90 in 10.0 mi SSW 11.5 mph - N/A   Clear
10:55 PM 44.6 °F 39.2 °F 26.6 °F 49% 29.90 in 10.0 mi South 10.4 mph - N/A   Clear
11:15 PM 41.0 °F 35.8 °F 26.6 °F 57% 29.90 in 10.0 mi South 8.1 mph - N/A   Clear
11:35 PM 41.0 °F 35.8 °F 26.6 °F 57% 29.90 in 10.0 mi South 8.1 mph - N/A   Clear
11:55 PM 37.4 °F 30.8 °F 26.6 °F 65% 29.89 in 10.0 mi SSE 9.2 mph - N/A   Clear